Dewpoint
66 67 67 67 68 67 66 67 66 67 66 67 66 65 66 67 66 66 68 69 70 71 71 72 73 73 74 74 74 74 75 75 75 75 75 74 74 74 74 74 74 74 74 74 74 74 75 74 74 74 74 74 74 73 73 73 73 72 71 71 70 69 69 69 68 69 71 70 69 70 71 73 73 74 74 74 75 75 75 76 76 76 76 76 76
66 67 67 67 67 67 67 66 66 66 66 66 67 66 65 66 66 67 66 68 70 70 71 71 72 73 73 74 74 74 74 75 74 75 74 74 74 73 73 74 74 74 74 74 74 74 74 74 74 73 74 74 74 73 73 73 73 72 72 71 70 70 70 69 69 69 69 71 71 72 72 73 73 74 74 74 74 75 75 76 76 76 76 76 77
66 67 67 67 67 67 67 67 66 66 65 65 65 65 65 65 66 66 66 66 69 69 70 70 71 72 73 73 74 74 74 74 74 75 75 74 74 74 74 74 74 74 73 74 74 74 74 74 73 73 73 73 74 73 73 74 73 73 73 72 72 72 71 70 70 69 70 71 71 71 73 74 74 74 75 74 75 75 75 76 75 75 76 76 76
65 66 67 66 67 67 67 67 66 65 65 65 65 65 65 65 66 65 66 66 67 70 70 70 71 72 72 72 73 74 74 74 74 74 74 74 74 74 74 74 74 73 73 73 73 74 74 74 73 73 73 73 73 74 74 74 74 74 73 73 73 73 73 72 71 71 71 71 72 72 74 73 74 74 74 74 74 75 75 76 76 76 75 75 75
64 65 66 66 66 66 66 66 66 66 65 64 64 64 64 65 65 64 64 65 66 68 70 71 71 71 71 71 72 73 73 73 74 74 74 74 74 74 74 74 74 74 74 74 74 74 74 73 73 74 74 73 73 73 73 74 74 73 73 73 73 73 73 73 73 72 72 72 73 73 72 73 74 74 74 74 75 75 76 76 75 75 76 74 75
64 65 65 66 66 66 66 66 66 66 65 65 64 64 64 64 65 66 65 64 65 66 68 69 70 71 71 71 71 72 73 73 73 73 73 73 74 74 74 74 74 74 74 74 74 74 73 74 73 74 73 73 73 73 74 73 73 73 73 73 73 74 74 74 74 73 73 73 73 72 73 73 74 74 74 75 75 74 75 75 76 75 75 75 75
64 64 64 65 66 66 66 66 66 66 66 66 65 65 64 63 63 64 66 65 64 64 65 68 70 69 70 71 71 72 72 73 73 73 73 74 74 74 73 74 74 74 74 74 74 74 74 73 74 74 73 73 73 73 74 74 73 74 74 74 74 73 73 73 73 73 73 72 72 73 73 73 73 73 74 74 75 75 74 74 74 75 76 75 76
64 65 65 65 66 66 66 66 67 67 66 67 67 66 65 64 64 64 65 66 65 65 64 65 67 68 68 69 70 71 72 72 73 73 73 73 73 73 74 73 73 74 74 74 74 74 74 73 73 73 73 74 74 74 74 74 74 74 74 74 74 73 73 73 73 72 72 72 72 72 73 73 73 73 73 73 74 74 74 74 73 74 74 75 76
64 64 65 66 66 67 67 67 67 67 67 67 67 67 66 66 66 65 65 65 65 65 65 65 65 66 67 68 68 69 70 71 72 72 72 73 73 73 73 73 73 74 74 73 74 74 74 74 73 73 74 75 74 74 74 74 74 74 74 74 74 74 74 73 73 73 72 72 72 72 71 72 72 72 72 73 73 72 74 73 73 74 74 73 74
65 65 64 65 66 67 68 69 68 68 68 68 68 67 67 67 66 66 65 65 65 66 66 66 65 65 66 67 68 68 68 69 69 67 68 72 73 72 73 73 74 74 74 74 73 73 73 73 74 75 75 75 73 72 71 72 74 73 74 74 74 74 73 73 73 73 72 72 71 72 71 71 71 72 72 72 73 73 73 73 73 73 73 72 73
66 66 65 66 67 68 69 69 69 69 69 69 69 69 68 67 67 67 66 66 66 66 66 65 65 65 65 66 66 67 67 67 65 64 65 66 71 72 72 73 74 74 73 74 73 73 73 73 74 74 76 76 75 71 71 70 70 71 72 74 74 74 73 73 72 73 72 72 72 72 71 72 72 72 72 72 72 73 73 73 73 73 72 70 70
68 68 68 69 69 69 69 69 69 69 69 69 69 69 69 68 68 68 67 66 67 65 65 65 66 65 65 66 66 66 67 65 62 62 63 64 66 72 72 72 73 73 73 73 73 73 73 73 73 73 74 75 75 76 74 71 69 69 69 70 71 72 72 73 73 73 73 72 72 72 72 72 72 73 72 72 73 73 73 73 73 73 72 71 71
70 70 70 69 69 70 69 69 69 69 70 70 70 69 69 69 68 68 67 67 66 66 66 65 65 65 65 66 66 66 67 64 62 61 62 62 63 68 71 72 72 72 73 73 73 73 73 73 73 73 72 75 75 75 75 75 71 68 68 69 70 69 68 68 70 74 74 74 72 72 72 73 72 73 73 74 74 73 73 72 72 72 72 71 71
70 71 70 70 69 69 70 69 69 70 70 70 70 70 69 69 68 68 67 68 68 67 66 66 65 66 65 66 66 66 66 64 61 60 60 61 62 65 71 71 72 72 72 72 72 73 73 73 73 73 73 74 75 75 75 75 75 75 73 73 72 72 70 68 67 68 70 73 74 73 74 74 73 73 74 75 74 73 73 72 72 71 71 71 72
69 70 71 71 70 70 70 70 70 70 70 70 70 70 70 69 69 68 68 67 68 67 66 66 66 66 65 65 65 65 65 62 60 59 59 59 61 63 70 71 71 72 72 72 73 73 73 73 73 73 73 73 74 74 74 74 75 74 74 73 73 73 73 72 72 71 71 71 72 73 74 75 74 74 74 76 74 74 74 74 74 73 73 72 73
69 70 70 71 72 71 71 71 71 71 70 70 70 70 70 70 69 69 69 68 68 67 68 67 66 66 66 65 65 65 65 60 59 58 58 58 60 66 69 71 71 71 71 72 72 73 73 73 73 73 73 73 73 69 72 74 74 74 74 73 73 73 73 73 68 69 73 72 72 72 72 73 70 74 74 74 75 75 74 74 73 73 72 71 71
68 70 70 71 71 72 71 71 71 71 71 70 70 70 70 70 70 70 69 68 67 67 67 67 68 67 66 66 66 66 65 62 58 57 57 58 60 67 69 70 71 71 71 72 72 72 73 73 73 73 73 73 70 65 65 72 73 73 73 72 72 72 72 73 68 65 65 65 65 66 65 65 65 64 63 65 72 73 73 72 71 72 71 70 71
67 68 70 71 71 71 71 71 71 71 71 70 70 70 70 71 70 70 69 68 68 67 67 68 68 68 67 67 66 66 66 64 58 56 56 57 61 67 68 69 70 70 71 72 72 72 72 74 74 73 72 72 66 64 63 69 73 73 72 72 71 71 72 71 71 70 64 62 62 63 63 64 64 64 64 64 64 70 72 71 71 72 72 71 70
64 64 65 66 68 71 71 71 71 71 71 71 71 71 71 71 71 71 70 69 69 69 69 68 68 68 67 67 67 67 67 64 58 56 56 55 61 68 69 69 69 70 70 71 72 72 72 73 74 72 71 70 64 63 62 67 72 72 73 72 71 71 71 72 72 72 72 72 72 71 70 68 69 70 70 67 66 70 72 72 73 73 72 72 72
64 65 64 64 66 67 68 71 71 71 71 71 72 72 71 71 71 71 71 71 70 70 69 69 68 68 68 68 68 67 67 68 67 56 55 55 57 68 69 69 69 70 70 70 71 71 72 72 71 65 64 63 62 61 60 61 71 72 72 71 71 71 71 72 72 73 73 72 73 73 74 74 74 73 72 72 70 70 71 72 73 73 73 73 72
63 64 65 65 65 66 67 68 70 71 71 71 71 72 72 71 71 71 71 71 71 71 70 70 69 69 68 68 68 68 68 68 68 57 55 54 55 60 69 69 69 70 70 70 71 71 71 71 71 67 61 61 60 59 58 58 63 72 73 72 72 71 71 72 72 74 73 73 73 73 74 74 74 74 73 73 72 71 70 70 72 73 73 73 72
62 64 65 66 67 67 67 68 70 72 71 71 71 71 72 72 72 72 71 71 72 71 71 70 70 69 69 69 69 69 69 66 68 60 56 54 54 55 66 69 69 70 70 70 70 70 70 71 71 68 61 60 59 58 57 57 58 70 72 64 64 64 70 72 73 73 73 73 73 73 73 73 74 74 73 73 72 71 71 71 71 73 74 74 74
61 62 64 66 67 68 69 69 71 71 70 71 71 70 71 71 71 72 72 72 72 71 71 71 70 70 70 70 70 70 70 70 63 67 57 54 53 53 58 64 63 70 69 69 70 70 70 71 71 67 60 58 57 57 57 57 58 64 61 60 61 62 68 71 72 72 72 72 72 71 72 73 73 73 73 73 73 73 72 73 73 73 73 74 74
61 61 63 65 67 69 70 71 72 71 71 71 71 71 71 71 71 72 72 72 72 71 71 71 71 70 69 69 69 70 70 70 66 61 63 55 53 53 54 57 61 67 70 69 70 70 70 71 70 63 58 55 55 56 57 57 62 58 57 58 60 64 68 70 71 71 71 71 71 71 71 72 72 73 73 74 74 75 74 74 73 73 73 73 73
60 61 62 63 65 67 69 72 72 70 70 71 71 71 71 71 71 72 72 72 72 71 71 71 71 70 70 70 70 70 70 71 70 66 59 58 54 53 53 55 56 59 68 70 70 70 66 62 61 59 58 56 55 56 57 56 56 58 57 58 66 67 68 69 70 71 71 70 70 71 71 71 72 72 73 74 74 73 73 72 72 73 73 73 72
60 61 62 63 64 65 66 69 74 72 71 72 72 72 71 71 70 71 71 71 72 71 71 71 70 71 70 70 70 70 70 70 70 70 64 61 57 54 54 54 56 57 62 68 65 64 62 60 59 59 59 60 64 65 66 66 59 57 59 62 65 67 68 69 70 70 70 70 70 71 71 72 72 73 74 73 72 72 71 70 69 68 69 69 68
60 60 61 61 63 64 65 66 69 70 72 72 73 74 73 72 71 70 70 71 71 71 71 71 71 70 70 70 70 70 70 70 70 70 70 69 66 63 58 58 56 56 61 66 64 67 66 65 65 62 63 63 64 64 65 66 66 64 63 65 66 67 68 69 70 70 70 71 71 71 72 72 73 72 72 71 71 71 70 70 69 69 67 67 68
59 59 60 60 61 63 64 67 68 69 69 70 71 73 74 72 71 70 69 69 70 71 71 71 70 70 70 70 70 70 70 70 70 70 70 70 68 67 63 62 61 61 62 64 67 68 70 67 65 69 69 69 68 68 69 70 69 67 66 66 67 68 69 70 70 72 72 72 72 73 72 73 72 71 71 71 71 71 70 69 68 68 66 66 65
59 59 59 59 60 63 64 65 67 68 69 71 71 72 72 72 71 71 71 71 70 70 71 71 71 71 70 70 70 70 70 70 70 64 70 63 67 68 67 65 64 64 62 60 67 68 69 70 71 71 70 69 69 69 69 69 69 69 69 68 67 68 68 69 69 70 71 71 72 72 72 72 72 72 71 71 71 71 69 68 68 68 65 64 64
58 58 59 59 60 62 63 64 66 68 68 69 69 70 68 63 68 71 70 66 64 63 63 70 71 71 70 71 71 70 70 70 63 59 57 57 57 59 59 58 58 62 61 57 63 68 68 68 69 69 69 70 70 70 69 69 69 69 69 66 68 68 68 68 68 69 71 71 72 72 72 72 72 71 71 70 71 71 69 66 67 66 64 62 62
58 58 59 60 60 62 63 63 65 67 68 68 69 69 70 69 56 57 63 66 63 59 57 58 60 62 70 71 70 63 62 61 59 55 54 54 54 55 55 55 54 55 55 61 65 67 68 68 67 68 69 69 69 69 70 70 70 70 70 69 69 69 67 68 69 69 70 70 71 71 72 71 71 71 70 70 70 70 69 66 66 65 65 63 62
58 58 58 59 61 62 62 64 65 67 69 70 70 70 70 70 71 59 56 57 58 55 54 55 55 56 57 63 68 71 61 56 55 53 53 53 53 53 53 52 52 52 52 57 66 67 67 68 68 68 69 69 69 69 69 70 70 70 70 70 70 70 69 69 70 70 70 70 70 70 71 71 71 70 70 70 68 68 66 65 65 65 65 64 64
57 58 59 60 62 62 64 64 65 67 68 69 69 70 70 70 70 71 69 55 54 54 53 52 52 52 53 53 54 59 61 59 55 52 50 51 51 52 52 51 51 49 51 62 67 67 67 68 69 69 69 69 70 70 70 70 70 70 70 70 70 71 71 71 70 71 70 70 71 70 70 71 71 70 68 68 67 68 66 65 65 65 64 64 64
58 59 60 61 62 63 65 66 66 67 69 70 70 69 70 70 71 71 71 71 69 60 53 50 49 50 50 50 52 50 50 53 53 52 50 50 50 51 50 55 47 47 56 65 66 67 68 68 68 68 69 69 69 69 70 70 70 70 71 71 71 71 72 72 72 70 70 70 70 71 70 70 69 69 68 68 68 68 66 65 65 64 63 63 63
59 61 63 64 65 65 64 65 65 66 68 68 69 69 69 70 70 71 71 71 71 71 71 71 58 49 59 55 50 49 49 49 50 50 50 49 49 48 51 62 60 59 59 63 66 67 67 67 67 67 68 68 69 69 70 71 71 71 71 71 71 72 72 71 71 71 70 70 70 70 69 69 69 68 68 67 66 66 66 65 65 64 63 63 63
58 60 61 62 63 63 63 63 64 64 65 66 67 68 69 69 69 70 70 71 71 72 71 72 72 59 50 50 52 50 49 48 49 49 48 48 47 51 64 66 66 65 62 63 64 65 66 67 67 68 68 69 70 71 71 71 71 71 72 72 71 72 72 71 71 70 70 70 70 69 67 68 68 67 68 67 67 67 67 66 65 64 63 63 63
58 59 61 62 62 62 62 63 63 63 63 63 65 66 67 68 68 69 70 70 71 71 72 72 69 68 62 63 57 51 48 48 48 47 46 46 47 59 68 68 68 68 65 64 64 65 66 67 68 68 69 70 70 71 71 71 72 72 69 72 72 72 72 72 71 70 70 69 69 69 68 68 68 67 67 66 66 67 67 66 65 63 62 62 60
59 60 61 61 61 61 61 61 62 62 62 63 64 66 66 67 68 68 68 69 69 70 71 71 68 70 70 70 64 62 53 45 47 48 45 44 51 61 66 68 68 68 67 66 65 65 66 67 68 69 70 70 71 71 71 71 72 72 72 72 72 72 68 70 69 70 70 69 69 69 68 68 68 68 66 67 66 66 65 65 64 63 62 61 61
59 60 59 59 59 60 60 60 61 61 62 63 64 65 66 66 67 67 68 68 68 69 70 71 71 70 71 70 64 61 60 63 65 65 61 59 59 61 65 67 69 69 69 68 67 66 67 67 68 69 70 70 70 71 71 71 72 72 72 72 72 72 71 71 70 70 70 69 69 69 68 68 68 67 67 66 66 65 65 65 64 64 62 62 61
59 60 59 58 59 60 60 60 60 61 61 62 63 64 65 65 66 66 67 67 68 68 69 69 70 70 71 68 64 64 67 67 67 69 68 65 62 62 63 65 68 69 69 69 69 68 67 68 69 69 69 69 70 71 71 71 72 71 72 72 71 71 71 71 71 70 70 69 69 69 68 68 68 67 67 66 66 65 65 64 64 63 63 62 61
58 58 59 58 58 58 59 59 59 60 61 61 62 63 64 65 66 66 66 66 67 67 68 68 69 70 69 64 56 57 68 69 69 69 69 68 67 65 64 65 66 68 69 69 69 69 68 68 68 69 69 69 70 71 71 71 72 72 71 71 71 70 71 71 70 70 70 69 69 68 68 67 67 66 65 65 62 63 64 63 63 63 63 61 61
57 57 57 58 58 58 58 58 58 59 59 59 60 61 62 63 65 66 66 66 66 66 67 67 68 69 63 55 51 50 64 69 69 68 69 69 69 68 67 66 65 65 65 64 65 67 68 68 68 68 68 69 70 70 70 71 70 71 70 70 70 69 69 69 69 69 69 69 68 68 68 67 66 66 65 61 64 64 63 62 62 61 61 60 58
56 56 57 57 57 57 56 57 57 57 58 58 59 60 61 62 63 64 66 66 66 66 66 67 67 67 63 53 53 50 62 67 67 67 68 68 67 62 59 58 56 55 54 54 55 57 59 59 58 55 55 54 55 58 60 61 63 67 69 69 69 69 68 68 67 66 66 66 66 66 66 65 64 64 64 62 62 62 61 60 60 60 59 59 57
55 55 56 56 56 56 56 56 56 56 56 57 58 59 60 61 62 63 64 66 66 67 67 67 67 65 62 55 53 57 64 65 65 63 61 57 55 53 51 51 51 50 51 51 51 52 53 52 50 49 49 49 50 50 51 52 53 56 62 66 65 62 62 60 61 63 64 65 64 63 63 62 61 61 60 60 60 60 60 59 59 58 58 57 56
53 53 54 54 54 54 54 54 55 55 55 55 55 56 57 58 58 60 63 65 66 66 67 67 66 64 62 61 61 62 61 59 56 54 52 50 49 48 47 48 48 48 48 48 49 50 50 50 49 48 47 47 48 49 50 50 51 52 53 56 56 56 56 57 58 60 61 61 60 59 59 59 59 59 58 58 59 59 59 58 58 57 56 57 57
52 52 52 52 52 53 53 53 54 53 53 53 53 53 54 55 56 57 58 59 60 61 61 61 60 59 58 57 56 54 52 51 50 49 49 47 46 45 45 45 45 45 46 46 47 47 48 48 48 48 47 47 48 48 49 49 50 50 51 52 53 54 55 58 60 60 60 59 59 58 58 58 58 57 57 57 57 57 57 57 57 56 56 55 54
51 51 51 51 51 52 52 51 52 52 52 52 52 53 53 53 54 54 54 55 55 55 54 53 52 51 50 49 49 48 48 47 46 46 45 44 44 44 44 44 44 44 45 45 46 47 47 47 48 48 47 47 48 48 48 48 49 49 50 50 51 52 53 55 56 57 58 58 58 58 57 56 56 56 57 56 56 55 54 54 54 53 53 52 53
49 50 50 51 50 50 50 51 51 51 51 51 51 51 52 52 52 52 51 51 50 50 49 48 48 47 47 46 46 46 45 45 45 45 44 44 44 45 45 45 45 45 45 46 46 46 47 47 47 48 47 48 47 47 47 47 48 48 48 48 49 49 49 49 51 51 52 53 53 53 53 53 52 52 53 53 53 52 51 49 49 49 49 49 49
49 49 49 49 49 50 50 50 50 50 50 50 50 50 50 50 50 49 49 48 48 47 46 46 46 46 45 45 45 43 44 44 43 44 44 44 45 45 45 45 45 45 45 45 45 46 46 46 46 46 47 47 47 47 46 47 46 46 46 46 46 44 43 44 47 49 47 50 50 50 51 51 51 50 50 49 50 50 49 49 50 49 50 50 50
48 48 48 48 49 49 49 49 49 49 50 49 49 48 48 48 48 47 47 47 46 46 45 45 45 44 44 44 44 44 43 42 43 43 44 44 44 44 44 44 44 44 44 44 44 45 45 45 45 45 45 45 45 45 45 45 45 46 46 45 41 41 42 43 45 46 49 49 50 50 50 50 49 49 49 49 48 48 48 48 49 48 48 47 48
49 48 48 48 47 48 48 48 48 48 48 48 48 47 47 46 47 46 46 45 45 44 45 44 44 44 44 44 44 44 43 43 43 43 43 43 43 43 43 43 43 43 43 44 44 44 44 44 44 44 45 45 44 44 43 43 43 42 40 39 38 39 40 43 45 41 43 47 50 49 49 49 48 48 48 48 48 47 48 47 47 47 45 47 47